Flag for Austria Weather past 2 weeks in Braunau am Inn, Upper Austria, Austria

32 °F

Ice fog.

Feels Like: 32 °F
Forecast: 28 / 40 °F
Wind: 1 mph from North

Location: Salzburg-Flughafen

Current Time: Nov 27, 2015 at 6:15:56 AM

Latest Report: Nov 27, 2015 at 5:50 AM

Visibility: 3 mi

Pressure: 30.09 "Hg

Humidity: 100%

Dew point: 32 °F

Location of Braunau am InnLocation

Historic Weather in Braunau am Inn — Graph


Braunau am Inn temperature yesterday

Maximum temperature yesterday: 36 °F (at 8:50 AM)
Minimum temperature yesterday: 32 °F (at 12:20 AM)
Average temperature yesterday: 34 °F

Past Weeks' High & Low Weather Summary

High72 °F (Nov 15, 1:50 PM)100% (Nov 12, 5:50 AM)30.45 "Hg (Nov 12, 5:50 AM)
Low25 °F (Nov 24, 12:20 AM)28% (Nov 15, 9:20 PM)29.42 "Hg (Nov 21, 3:20 PM)
Average43 °F77%30.02 "Hg
* Reported Nov 12 4:20 AM — Nov 27 4:50 AM, Braunau am Inn, Weather by CustomWeather, © 2015

Note: Actual official high and low records may vary slightly from our data, if they occured in-between our weather recording intervals... More about our weather records


Braunau am Inn weather history for previous 24 hours

Time TempWeatherWind HumidityBarometerVisibility
4:50 AM
Fri, Nov 27
32 °FLow clouds.1 mph100%30.09 "Hg4 mi
4:20 AM32 °FLow clouds.No wind100%30.09 "Hg4 mi
3:50 AM32 °FIce fog.3 mph100%30.12 "Hg3 mi
3:20 AM34 °FPassing clouds.1 mph100%30.12 "Hg4 mi
2:50 AM32 °FIce fog.2 mph100%30.12 "Hg3 mi
2:20 AM34 °FPartly cloudy.3 mph100%30.12 "Hg4 mi
1:50 AM34 °FPassing clouds.1 mph100%30.12 "Hg4 mi
1:20 AM34 °FPassing clouds.2 mph100%30.12 "Hg4 mi
12:50 AM34 °FPassing clouds.2 mph100%30.12 "Hg5 mi
12:20 AM34 °FPassing clouds.1 mph100%30.12 "Hg5 mi
11:50 PM
Thu, Nov 26
34 °FSprinkles. Passing clouds.No wind100%30.12 "Hg5 mi
10:50 PM34 °FLight rain. Passing clouds.2 mph100%30.12 "Hg4 mi
10:20 PM34 °FLight rain. Passing clouds.3 mph100%30.12 "Hg4 mi
9:50 PM34 °FRain. Fog.2 mph100%30.09 "Hg2 mi
9:20 PM34 °FLight rain. Fog.2 mph100%30.09 "Hg3 mi
8:50 PM34 °FLight rain. Passing clouds.1 mph100%30.09 "Hg4 mi
8:20 PM34 °FLight rain. Passing clouds.1 mph100%30.09 "Hg5 mi
7:50 PM34 °FLight rain. Passing clouds.3 mph100%30.07 "Hg6 mi
7:20 PM34 °FLight rain. Partly cloudy.2 mph100%30.07 "HgN/A
6:50 PM34 °FLight rain. Partly cloudy.1 mph100%30.07 "Hg6 mi
6:20 PM34 °FLight rain. Passing clouds.3 mph100%30.04 "HgN/A
5:50 PM34 °FLight rain. Partly cloudy.3 mph100%30.04 "HgN/A
5:20 PM34 °FLight rain. Passing clouds.1 mph100%30.04 "Hg5 mi
4:50 PM34 °FPartly cloudy.2 mph100%30.01 "HgN/A
4:20 PM34 °FLight rain. Broken clouds.5 mph100%30.01 "HgN/A
3:50 PM36 °FLight rain. Broken clouds.3 mph100%29.98 "HgN/A
3:20 PM36 °FLight rain. Broken clouds.1 mph100%29.98 "HgN/A
2:50 PM36 °FBroken clouds.2 mph93%29.95 "HgN/A
2:20 PM36 °FBroken clouds.2 mph93%29.95 "HgN/A
1:50 PM36 °FBroken clouds.1 mph93%29.95 "HgN/A
1:20 PM36 °FBroken clouds.2 mph93%29.95 "HgN/A
12:50 PM36 °FLight rain. Broken clouds.2 mph93%29.92 "HgN/A
12:20 PM34 °FLight rain. Broken clouds.2 mph100%29.92 "Hg4 mi
11:50 AM34 °FLight rain. Broken clouds.5 mph100%29.92 "Hg4 mi
11:20 AM34 °FLight rain. Fog.6 mph100%29.92 "Hg2 mi
10:50 AM34 °FLight rain. Fog.7 mph100%29.89 "Hg2 mi
10:20 AM36 °FLight rain. Fog.5 mph100%29.89 "Hg2 mi
9:50 AM36 °FLight rain. Fog.2 mph100%29.86 "Hg2 mi
9:20 AM36 °FLight rain. Partly sunny.1 mph93%29.86 "Hg4 mi
8:50 AM36 °FBroken clouds.1 mph93%29.86 "Hg4 mi
8:20 AM34 °FBroken clouds.1 mph100%29.83 "Hg4 mi
7:50 AM34 °FBroken clouds.1 mph100%29.83 "Hg4 mi
7:20 AM34 °FPartly cloudy.1 mph100%29.80 "Hg5 mi
6:50 AM34 °FPartly cloudy.1 mph100%29.80 "Hg4 mi
6:20 AM34 °FPartly cloudy.1 mph100%29.80 "Hg4 mi
Weather by CustomWeather, © 2015

See weather overviewHow to use our weather pages